Terminal Aerodrome Forecast
Issued by NWS

Home | Current Version | Previous Version | Text Only | Print | Product List | Glossary On
Versions: 1 2 3 4 5 6 7 8 9 10 11 12 13 14 15 16 17
000
FTUS45 KFGZ 262200 AAA
TAFGCN
TAF AMD
KGCN 262225Z 2622/2718 06011KT P6SM BKN220
     FM270200 VRB03KT P6SM BKN045 OVC060
     FM270500 VRB05KT 6SM -SHRA BKN020 OVC035=

USA.gov is the U.S. government's official web portal to all federal, state and local government web resources and services.